Location: Hastingleigh
(51.1500°N, 1.0000°E)
Time: 05:22:17
(UTC+00:00)

Daily predictions for brighter satellites

Satellite Brightness Start Highest point End
(mag) Time Altitude Azimuth Time Altitude Azimuth Time Altitude Azimuth
Cosmos 2278 Rocket 4.5 03:14:43 20° ENE 03:14:43 20° ENE 03:17:33 10° E
Cosmos 2333 Rocket 4.2 03:32:03 23° E 03:32:03 23° E 03:36:14 10° NE
Cosmos 2219 Rocket 4.3 03:33:24 21° ESE 03:33:47 21° E 03:37:49 10° NE
USA 215 3.9 03:43:13 10° ENE 03:48:02 50° NE 03:48:02 50° NE
SL-16 R/B 4.0 04:00:40 23° NNE 04:00:40 23° NNE 04:02:48 10° NNE
Cosmos 2360 Rocket 3.4 04:05:03 35° NE 04:05:03 35° NE 04:08:17 10° NNE
Cosmos 2322 Rocket 3.8 04:06:14 26° NNE 04:06:14 26° NNE 04:08:38 10° NNE
ALOS 4.5 04:07:35 10° NNE 04:09:03 19° NNE 04:09:03 19° NNE
Cosmos 1980 Rocket 4.3 04:21:02 15° N 04:21:02 15° N 04:22:27 10° NNE
Cosmos 2233 Rocket 3.9 04:36:27 72° N 04:36:27 72° N 04:42:02 10° N
CZ-2C R/B 4.5 04:36:40 10° N 04:37:58 18° N 04:37:58 18° N
Cosmos 1932 4.4 04:43:51 72° SW 04:44:36 90° SE 04:51:06 10° NE
Cosmos 1898 Rocket 3.5 04:48:06 74° SE 04:48:06 74° SE 04:52:49 10° SSE
BREEZE-M DEB (TANK) 3.6 04:48:26 67° SSW 04:48:57 72° SSE 05:01:46 10° E
Cosmos 2084 4.2 04:49:48 51° E 04:49:48 51° E 04:53:25 10° NE
Cosmos 2369 Rocket 4.5 04:48:24 11° N 04:51:40 17° NNE 04:55:14 10° ENE
Cosmos 1758 4.3 04:54:43 43° NE 04:54:43 43° NE 04:57:44 10° NNE
Cosmos 921 Rocket 4.0 04:53:25 31° SSE 04:54:55 45° ESE 04:58:57 10° NNE
Cosmos 2278 Rocket 2.2 04:56:36 48° NNW 04:58:14 79° ENE 05:03:55 10° SSE
CZ-4B R/B 4.2 04:54:19 10° NNE 04:58:49 75° ESE 04:58:57 74° ESE
COSMO-SKYMED 1 3.3 04:56:31 10° SSE 04:59:33 45° SSE 04:59:33 45° SSE
METEOR-M 4.0 04:55:58 10° NNE 05:01:22 83° WNW 05:02:51 50° SSW
CZ-4B R/B 4.1 04:58:02 10° NNE 05:01:25 37° E 05:04:49 10° SSE
Cosmos 1943 Rocket 4.0 05:01:15 13° N 05:05:16 25° NE 05:09:55 10° E
Cosmos 2322 3.6 05:09:02 59° WSW 05:09:57 70° WNW 05:15:42 10° NNE
Lacrosse 5 rocket 1.5 05:11:53 64° ESE 05:11:53 64° ESE 05:15:08 10° ESE
SAR-Lupe-4 4.1 05:08:13 10° SSE 05:11:25 58° ESE 05:11:25 58° ESE
Cosmos 1464 Rocket 4.1 05:06:00 10° S 05:12:06 74° E 05:18:15 10° NNE
Cosmos 2237 Rocket 3.6 05:06:58 10° S 05:12:09 38° ESE 05:17:23 10° NE
CZ-2C R/B 4.1 05:09:40 10° SE 05:14:21 34° ENE 05:19:08 10° N
H-2A R/B 4.0 05:11:14 10° NNE 05:14:45 40° E 05:18:16 10° S
Meteor 1-31 Rocket 4.5 05:11:25 10° N 05:13:02 24° N 05:13:02 24° N
Cosmos 1867 3.9 05:15:21 46° NW 05:15:21 46° NW 05:20:37 10° NE
Cosmos 2333 Rocket 2.1 05:14:07 49° SW 05:15:39 73° WNW 05:21:21 10° NNE
Cosmos 1072 Rocket 4.5 05:10:42 10° S 05:16:54 86° E 05:23:17 10° N
Cosmos 2219 Rocket 2.0 05:15:11 42° SW 05:17:07 78° WNW 05:22:44 10° NNE
Cosmos 1544 Rocket 4.2 05:14:05 10° S 05:18:17 54° E 05:22:32 10° NNE
Cosmos 468 Rocket 4.0 05:14:26 19° SSW 05:18:17 85° ESE 05:23:38 10° NNE
Cosmos 1937 Rocket 3.4 05:20:43 44° NW 05:22:21 71° WSW 05:27:34 10° SSE
SAR-Lupe-1 4.1 05:18:59 10° SSE 05:22:28 79° ESE 05:22:28 79° ESE
BREEZE-M DEB (TANK) 4.0 05:20:10 34° W 05:23:56 54° SW 05:27:57 10° SE
Cosmos 372 Rocket 4.2 05:20:52 21° NNW 05:24:27 70° ENE 05:29:41 10° SSE
Okean 1-7 Rocket 3.5 05:23:31 43° NNW 05:24:57 74° W 05:29:27 10° S
Cosmos 2084 Rocket 4.5 05:25:15 31° N 05:26:41 41° NE 05:30:55 10° ESE
Envisat 4.1 05:23:19 10° NNE 05:28:13 46° E 05:33:06 10° S
GEOS 3 Rocket 3.9 05:24:58 10° SSE 05:30:12 52° SW 05:31:33 42° W
Cosmos 1400 Rocket 4.5 05:27:57 10° SSE 05:31:43 36° E 05:35:32 10° NNE
OPS 6432 4.3 05:32:05 82° W 05:32:10 84° NW 05:35:23 10° NE
USA 215 3.6 05:26:01 10° ENE 05:32:20 54° N 05:35:23 31° WNW
Cosmos 1626 Rocket 3.7 05:29:13 10° N 05:33:43 77° ENE 05:38:12 10° SSE
COSMOS 2428 2.6 05:32:07 24° SW 05:35:37 69° WNW 05:41:20 10° NNE
Cosmos 1092 Rocket 4.3 05:30:31 10° N 05:36:38 66° ENE 05:42:46 10° SSE
Cosmos 2333 4.5 05:36:43 39° W 05:37:56 44° NW 05:43:21 10° NNE
YAOGAN 6 3.6 05:34:19 10° NNE 05:37:56 49° E 05:41:31 10° S
SL-16 R/B 3.7 05:42:32 19° NNW 05:42:32 19° NNW 05:46:22 10° NNE
Cosmos 1980 4.0 05:39:14 10° SSW 05:44:50 68° ESE 05:50:28 10° NNE
Cosmos 1455 Rocket 3.0 05:40:53 10° SSW 05:45:10 56° WNW 05:49:27 10° N
Cosmos 2360 Rocket 3.1 05:46:50 27° NW 05:47:14 27° NW 05:52:00 10° NNE
Cosmos 2322 Rocket 3.6 05:48:04 19° NW 05:48:08 19° NNW 05:52:09 10° NNE
Cosmos 44 Rocket 3.8 05:47:02 35° WNW 05:48:39 46° WSW 05:53:35 10° SSE
SKYMED 2 4.5 05:45:08 10° SSW 05:48:07 30° WSW 05:48:07 30° WSW
ALOS 3.8 05:45:29 10° N 05:47:33 20° NNW 05:47:33 20° NNW
Cosmos 2034 Rocket 4.0 05:43:09 10° S 05:49:32 85° W 05:55:57 10° N
H-2A R/B 4.2 05:47:03 10° NNE 05:51:14 37° E 05:55:26 10° SSE
FENGYUN 3A 4.4 05:47:56 10° N 05:52:31 29° WNW 05:52:53 29° WNW
Nadezhda 4 Rocket 3.9 05:47:34 10° NNW 05:53:39 64° W 05:59:39 10° S
ADEOS 4.0 05:49:35 10° N 05:54:25 39° WNW 05:58:33 14° SW
ATLAS CENTAUR R/B 4.1 05:53:04 10° SSE 05:55:39 18° ESE 05:58:14 10° ENE
Cosmos 1758 Rocket 4.3 05:51:22 10° N 05:55:50 56° ENE 06:00:15 10° SSE
Meteor PRIRODA 3.6 05:53:09 10° N 05:56:43 54° WNW 06:00:15 10° SSW
deb Chang Zheng 4 3.6 05:52:38 10° N 05:56:47 51° WNW 06:00:53 10° SW
Cosmos 540 Rocket 3.4 05:53:53 10° SSW 05:59:00 87° WNW 06:04:11 10° NNE
ERS-2 3.5 05:56:09 10° SSW 05:58:04 22° SW 05:58:04 22° SW
MOS 1 Rocket 3.7 05:54:52 10° SSW 05:59:34 41° W 06:03:06 15° NNW
Cosmos 1953 2.2 05:55:46 10° SSW 05:59:43 61° WNW 06:03:40 10° N
Okean O Rocket 3.5 05:57:12 10° NNE 06:01:10 33° E 06:05:06 10° SSE
Cosmos 1980 Rocket 4.3 06:03:39 10° NNW 06:04:32 10° N 06:05:23 10° N
Cosmos 1908 3.0 06:01:50 10° SSW 06:05:38 78° W 06:09:28 10° N
Cosmos 1634 Rocket 4.5 05:59:43 10° S 06:05:46 64° E 06:11:54 10° NNE
Cosmos 1726 3.8 06:10:29 18° NNW 06:10:29 18° NNW 06:11:59 10° NNW
SMAP 3.8 06:06:57 10° NNE 06:11:33 56° E 06:16:07 10° S
Cosmos 1689 Rocket 3.8 06:10:33 10° SSW 06:11:43 18° SW 06:11:43 18° SW
Spot 2 4.2 06:09:14 10° NNE 06:13:18 69° ESE 06:17:20 10° S
Cosmos 1602 Rocket 3.6 06:09:34 10° NNW 06:13:57 59° W 06:18:21 10° S
Meteor 1-16 Rocket 4.3 06:08:27 10° SSW 06:14:21 73° WNW 06:20:19 10° N
Cosmos 1461 3.2 06:11:59 10° SW 06:16:36 62° NW 06:21:21 10° NE
Cosmos 2150 Rocket 4.0 06:11:33 10° NNW 06:16:54 85° WSW 06:22:17 10° SSE
Cosmos 1315 Rocket 4.3 06:16:11 10° SSE 06:19:51 40° E 06:23:32 10° NNE
DMSP B5D2-2 4.2 06:19:51 10° SSE 06:25:06 85° ENE 06:30:25 10° NNW
Cosmos 1763 Rocket 4.1 06:21:52 10° WSW 06:26:35 35° NW 06:31:25 10° NNE
Cosmos 2084 4.3 06:26:23 19° W 06:28:53 33° NNW 06:32:55 10° NE
Cosmos 2026 Rocket 4.0 06:24:24 10° NNW 06:30:42 70° W 06:37:02 10° S
Cosmos 1825 Rocket 3.6 06:27:02 10° N 06:31:31 90° WNW 06:36:00 10° S
Cosmos 841 Rocket 3.6 06:27:24 10° SW 06:32:25 53° WNW 06:37:30 10° NNE
Meteor 1-11 4.2 06:26:57 10° NNW 06:32:31 67° W 06:38:02 10° S
Meteor 2-19 Rocket 4.4 06:26:30 10° NNW 06:32:40 82° W 06:38:45 10° S
Cosmos 921 Rocket 4.0 06:30:20 12° WSW 06:33:24 24° NW 06:36:53 10° N
Cosmos 1340 3.5 06:30:49 12° NW 06:33:41 29° W 06:36:57 10° SSW
CENTAUR R/B 4.2 06:29:38 10° S 06:35:03 38° ESE 06:41:22 10° NE
CZ-4B R/B 3.9 06:33:36 10° NNW 06:36:21 21° WNW 06:39:07 10° WSW
Cosmos 1703 4.2 06:33:35 10° NNW 06:36:54 27° W 06:40:13 10° SSW
Cosmos 2369 Rocket 2.9 06:31:31 10° NNW 06:37:02 54° NE 06:42:30 10° SE
COSMO-SKYMED 1 4.5 06:35:51 10° WSW 06:36:47 12° W 06:36:47 12° W
Cosmos 2098 Rocket 3.8 06:32:59 10° NNW 06:39:33 72° W 06:44:49 10° S
Cosmos 2298 Rocket 4.2 06:35:45 10° NNW 06:40:57 53° WSW 06:46:07 10° S
Cosmos 2278 Rocket 3.5 06:38:29 13° WNW 06:41:41 21° W 06:45:47 10° SSW
CZ-4B R/B 3.5 06:36:00 10° NNE 06:41:43 79° ESE 06:47:20 10° SSW
NOSS 0 Rocket 4.1 06:35:59 10° SW 06:41:59 51° NW 06:48:01 10° NNE
SL-16 R/B 2.7 06:37:46 10° SSW 06:43:23 68° ESE 06:49:02 10° NE
Cosmos 1346 Rocket 2.9 06:39:36 10° NNW 06:43:31 55° W 06:47:23 10° S
Cosmos 1570 Rocket 4.2 06:40:37 10° SW 06:45:42 51° WNW 06:50:50 10° NNE
USA 238 DEB 4.5 06:41:45 10° SSW 06:48:10 57° SE 06:54:54 10° NE
USA 238 4.5 06:41:53 10° SSW 06:48:17 56° SE 06:55:01 10° NE
H-2A R/B 3.9 06:45:55 10° NNW 06:48:42 20° WNW 06:51:28 10° WSW
PAYLOAD B 4.2 06:43:30 10° NNE 06:49:05 71° WNW 06:54:38 10° SSW
Cosmos 1943 Rocket 2.2 06:44:02 10° NNW 06:49:44 84° WSW 06:55:24 10° SSE
Lacrosse 5 rocket 2.7 06:47:30 12° W 06:50:02 21° SW 06:52:51 10° S
Cosmos 1953 Rocket 3.5 06:48:30 10° NNW 06:52:52 82° W 06:57:12 10° S
Cosmos 1939 Rocket 3.2 06:49:33 10° NNE 06:53:32 71° ESE 06:57:24 10° S
Lacrosse 4 Rocket 1.5 06:49:51 10° SSW 06:54:05 86° SE 06:58:30 10° NE
NOAA 12 4.1 06:48:51 10° N 06:54:07 70° WNW 06:59:23 10° SSW
CZ-2C R/B 3.0 06:49:35 10° S 06:54:33 43° W 06:59:39 10° NNW
Cosmos 2237 Rocket 2.5 06:50:43 10° SW 06:56:10 46° NW 07:01:40 10° NNE
Cosmos 2058 4.1 06:54:10 10° N 06:58:09 43° ENE 07:02:04 10° SSE
Cosmos 2333 Rocket 3.5 06:56:45 10° W 07:00:57 21° NW 07:05:10 10° NNE
Cosmos 2219 Rocket 3.4 06:57:48 10° W 07:02:00 21° NW 07:06:14 10° NNE
FengYun 1-2 T 4.3 06:56:37 10° NNE 07:02:19 84° WNW 07:07:59 10° SSW
Cosmos 1125 Rocket 3.8 06:58:54 10° NNW 07:04:00 50° WSW 07:09:07 10° S
Cosmos 2208 Rocket 4.4 07:00:33 10° SW 07:05:45 45° WNW 07:10:58 10° NNE
Cosmos 2084 Rocket 4.1 07:02:06 10° NW 07:06:14 43° SW 07:10:29 10° SSE
CZ-4 R/B 3.1 07:03:07 10° NNE 07:06:46 37° E 07:10:21 10° SSE
Envisat 3.7 07:02:40 10° N 07:07:05 31° WNW 07:11:30 10° WSW
Cosmos 1400 Rocket 3.9 07:04:51 10° WSW 07:08:17 25° WNW 07:11:46 10° N
Cosmos 1606 Rocket 3.5 07:05:02 10° SSW 07:09:17 61° WNW 07:13:36 10° N
FALCON 9 DEB 3.2 07:06:32 10° WSW 07:09:57 85° SSE 07:13:23 10° ENE
Cosmos 1814 Rocket 4.5 07:05:14 10° WSW 07:09:59 37° NW 07:14:47 10° NNE
YAOGAN 6 4.1 07:08:33 10° NNW 07:11:05 18° WNW 07:13:36 10° WSW
Cosmos 2297 4.3 07:08:32 10° NW 07:13:52 40° WSW 07:19:10 10° S
CORIOLIS 4.2 07:09:32 10° N 07:14:49 60° WNW 07:20:03 10° SSW
SL-4 R/B 3.3 07:11:10 10° SW 07:14:54 43° SSE 07:18:57 10° E
USA 215 3.4 07:08:30 10° ESE 07:15:00 72° NNE 07:21:31 10° WNW
